Location: Ferintosh
(52.7647°N, 112.9692°W)
Time: 22:54:32
(UTC+00:00)

A-11 Canister half - Pass Details

Date: 23 May 2024
Orbit: 1524 x 1683 km, 47.3° (Epoch: 20 June)

Event Time Altitude Azimuth Distance (km) Brightness Sun altitude
Rises 04:36:45 0° 221° (SW) 4,679 11.5 -7.6°
Reaches altitude 10° 04:39:58 10° 215° (SW) 3,710 10.9 -8.0°
Maximum altitude 04:48:31 41° 149° (SSE) 2,130 9.3 -8.8°
Drops below altitude 10° 04:57:18 10° 83° (E) 3,823 10.8 -9.6°
Sets 05:00:40 0° 77° (ENE) 4,834 11.4 -9.8°
